QPF
0.07 0.06 0.06 0.07 0.05 0.03 0.03 0.03 0.03 0.03 0.03 0.04 0.04 0.04 0.04 0.03 0.04 0.05 0.04 0.06 0.06 0.06 0.06 0.05 0.04 0.04 0.04 0.03 0.02 0.03 0.03 0.03 0.03 0.01 0.01 0.01 0.01 0.01 0.01 0.01 0.01 0.00 0.00
0.04 0.05 0.05 0.05 0.03 0.01 0.01 0.01 0.02 0.03 0.04 0.04 0.05 0.06 0.05 0.03 0.03 0.04 0.04 0.06 0.07 0.07 0.08 0.07 0.06 0.05 0.04 0.04 0.03 0.02 0.02 0.03 0.03 0.02 0.01 0.01 0.01 0.01 0.01 0.01 0.01 0.01 0.01
0.04 0.05 0.07 0.05 0.02 0.01 0.00 0.01 0.01 0.01 0.02 0.04 0.06 0.04 0.03 0.02 0.03 0.03 0.04 0.04 0.05 0.06 0.06 0.06 0.06 0.05 0.04 0.04 0.04 0.03 0.03 0.03 0.03 0.02 0.02 0.02 0.01 0.01 0.02 0.01 0.02 0.02 0.02
0.07 0.10 0.12 0.10 0.06 0.03 0.01 0.01 0.01 0.02 0.02 0.02 0.01 0.01 0.02 0.02 0.02 0.03 0.04 0.04 0.04 0.04 0.05 0.05 0.05 0.04 0.03 0.04 0.03 0.05 0.05 0.04 0.04 0.04 0.04 0.03 0.02 0.02 0.02 0.02 0.03 0.05 0.04
0.10 0.11 0.11 0.11 0.10 0.07 0.03 0.01 0.01 0.02 0.02 0.02 0.01 0.01 0.01 0.02 0.02 0.03 0.03 0.04 0.04 0.04 0.04 0.05 0.04 0.05 0.05 0.05 0.04 0.05 0.06 0.06 0.06 0.06 0.05 0.04 0.03 0.03 0.03 0.03 0.04 0.05 0.07
0.09 0.08 0.09 0.10 0.10 0.07 0.04 0.02 0.02 0.02 0.02 0.02 0.01 0.01 0.02 0.03 0.05 0.05 0.04 0.04 0.05 0.05 0.04 0.04 0.05 0.06 0.05 0.06 0.06 0.05 0.06 0.05 0.04 0.03 0.03 0.03 0.04 0.03 0.04 0.04 0.05 0.04 0.04
0.09 0.08 0.08 0.07 0.06 0.04 0.04 0.03 0.02 0.03 0.03 0.03 0.03 0.03 0.04 0.04 0.05 0.06 0.05 0.04 0.03 0.04 0.03 0.03 0.04 0.04 0.04 0.04 0.04 0.05 0.04 0.04 0.04 0.03 0.03 0.03 0.02 0.02 0.03 0.03 0.02 0.02 0.02
0.06 0.06 0.07 0.05 0.04 0.04 0.05 0.04 0.03 0.05 0.06 0.05 0.05 0.05 0.05 0.06 0.06 0.05 0.05 0.04 0.04 0.03 0.03 0.03 0.03 0.03 0.03 0.03 0.03 0.04 0.04 0.05 0.05 0.04 0.03 0.02 0.02 0.02 0.02 0.01 0.01 0.01 0.01
0.03 0.04 0.05 0.05 0.06 0.06 0.07 0.07 0.08 0.08 0.08 0.08 0.08 0.07 0.06 0.06 0.06 0.05 0.04 0.04 0.05 0.04 0.04 0.05 0.05 0.05 0.05 0.05 0.04 0.05 0.06 0.06 0.07 0.06 0.03 0.02 0.02 0.02 0.02 0.01 0.01 0.01 0.01
0.03 0.04 0.06 0.08 0.10 0.08 0.08 0.10 0.12 0.13 0.14 0.13 0.09 0.07 0.06 0.05 0.05 0.05 0.05 0.04 0.04 0.05 0.06 0.06 0.06 0.05 0.05 0.04 0.04 0.04 0.05 0.05 0.04 0.04 0.03 0.02 0.01 0.02 0.02 0.01 0.01 0.01 0.01
0.07 0.06 0.07 0.08 0.09 0.08 0.07 0.08 0.09 0.10 0.10 0.08 0.06 0.05 0.05 0.05 0.05 0.05 0.06 0.06 0.05 0.05 0.05 0.06 0.05 0.06 0.06 0.05 0.03 0.03 0.03 0.03 0.02 0.02 0.02 0.02 0.02 0.01 0.01 0.01 0.01 0.01 0.01
0.05 0.07 0.06 0.06 0.06 0.07 0.08 0.09 0.09 0.09 0.08 0.07 0.06 0.05 0.05 0.05 0.05 0.05 0.06 0.08 0.08 0.06 0.07 0.08 0.08 0.08 0.08 0.07 0.04 0.03 0.03 0.02 0.01 0.01 0.01 0.01 0.01 0.01 0.01 0.01 0.01 0.01 0.01
0.02 0.03 0.04 0.03 0.03 0.02 0.03 0.05 0.04 0.04 0.05 0.05 0.05 0.04 0.04 0.04 0.05 0.06 0.07 0.08 0.08 0.07 0.08 0.11 0.11 0.11 0.10 0.06 0.04 0.03 0.03 0.01 0.01 0.01 0.01 0.01 0.01 0.01 0.01 0.01 0.01 0.01 0.01
0.02 0.03 0.04 0.03 0.03 0.03 0.03 0.05 0.04 0.03 0.04 0.05 0.05 0.05 0.04 0.04 0.04 0.05 0.06 0.08 0.08 0.08 0.08 0.11 0.11 0.10 0.07 0.04 0.04 0.03 0.02 0.01 0.01 0.00 0.00 0.01 0.01 0.01 0.01 0.01 0.01 0.01 0.01
0.03 0.04 0.04 0.04 0.04 0.05 0.06 0.07 0.08 0.07 0.06 0.07 0.07 0.07 0.06 0.05 0.06 0.07 0.06 0.07 0.08 0.11 0.13 0.15 0.14 0.11 0.08 0.05 0.04 0.03 0.02 0.01 0.01 0.01 0.01 0.01 0.01 0.01 0.01 0.01 0.01 0.01 0.00
0.03 0.04 0.03 0.03 0.03 0.04 0.06 0.07 0.08 0.09 0.09 0.08 0.07 0.05 0.05 0.05 0.06 0.07 0.07 0.08 0.11 0.14 0.13 0.11 0.11 0.10 0.09 0.08 0.07 0.06 0.05 0.04 0.03 0.02 0.02 0.02 0.02 0.01 0.01 0.01 0.00 0.00 0.01
0.03 0.03 0.04 0.05 0.06 0.06 0.07 0.08 0.10 0.12 0.13 0.12 0.10 0.08 0.07 0.06 0.07 0.08 0.09 0.09 0.09 0.09 0.08 0.07 0.07 0.08 0.08 0.07 0.07 0.06 0.05 0.05 0.04 0.03 0.03 0.04 0.04 0.03 0.02 0.02 0.02 0.01 0.01
0.03 0.03 0.05 0.06 0.08 0.08 0.08 0.07 0.07 0.07 0.06 0.06 0.06 0.07 0.07 0.07 0.07 0.08 0.08 0.08 0.08 0.08 0.06 0.05 0.05 0.07 0.07 0.07 0.07 0.06 0.06 0.05 0.05 0.05 0.04 0.04 0.03 0.03 0.03 0.02 0.02 0.02 0.02
0.02 0.03 0.03 0.03 0.03 0.03 0.03 0.02 0.03 0.03 0.04 0.04 0.04 0.06 0.08 0.10 0.11 0.10 0.09 0.08 0.08 0.07 0.06 0.06 0.06 0.08 0.09 0.10 0.10 0.09 0.07 0.06 0.05 0.05 0.05 0.04 0.04 0.03 0.03 0.03 0.03 0.03 0.03
0.01 0.02 0.02 0.02 0.03 0.03 0.03 0.02 0.02 0.02 0.02 0.03 0.03 0.05 0.07 0.09 0.10 0.12 0.11 0.11 0.09 0.08 0.08 0.08 0.07 0.07 0.08 0.08 0.08 0.08 0.08 0.07 0.07 0.07 0.06 0.05 0.04 0.03 0.03 0.03 0.02 0.02 0.02
0.01 0.01 0.02 0.02 0.02 0.03 0.03 0.03 0.03 0.02 0.02 0.02 0.02 0.03 0.04 0.04 0.05 0.06 0.06 0.06 0.07 0.06 0.06 0.07 0.07 0.07 0.07 0.08 0.08 0.07 0.06 0.06 0.05 0.05 0.06 0.05 0.05 0.04 0.03 0.03 0.02 0.02 0.02
0.02 0.02 0.02 0.02 0.03 0.03 0.04 0.04 0.03 0.03 0.02 0.02 0.02 0.03 0.04 0.03 0.03 0.04 0.04 0.05 0.05 0.06 0.08 0.07 0.06 0.07 0.08 0.08 0.08 0.06 0.05 0.04 0.04 0.04 0.04 0.05 0.05 0.05 0.04 0.04 0.04 0.03 0.04
0.02 0.03 0.03 0.04 0.06 0.06 0.06 0.05 0.04 0.04 0.03 0.02 0.02 0.02 0.03 0.03 0.03 0.03 0.03 0.04 0.05 0.06 0.06 0.07 0.08 0.08 0.08 0.07 0.07 0.06 0.05 0.05 0.04 0.04 0.04 0.04 0.04 0.04 0.04 0.04 0.04 0.04 0.04
0.03 0.05 0.04 0.03 0.04 0.05 0.04 0.03 0.02 0.02 0.02 0.01 0.03 0.04 0.03 0.04 0.04 0.04 0.04 0.04 0.05 0.07 0.07 0.06 0.07 0.08 0.07 0.07 0.06 0.06 0.06 0.05 0.04 0.03 0.03 0.03 0.03 0.03 0.03 0.04 0.04 0.05 0.05
0.02 0.03 0.05 0.05 0.04 0.04 0.04 0.03 0.03 0.02 0.02 0.02 0.04 0.06 0.07 0.06 0.05 0.04 0.04 0.03 0.04 0.04 0.04 0.04 0.05 0.07 0.08 0.08 0.07 0.05 0.05 0.05 0.04 0.03 0.02 0.02 0.03 0.03 0.03 0.03 0.03 0.04 0.05
0.02 0.02 0.03 0.04 0.04 0.04 0.04 0.04 0.03 0.03 0.03 0.04 0.04 0.05 0.05 0.05 0.04 0.03 0.03 0.03 0.03 0.03 0.04 0.03 0.04 0.04 0.04 0.04 0.04 0.03 0.03 0.03 0.03 0.02 0.02 0.02 0.02 0.02 0.03 0.03 0.03 0.04 0.04
MSLP
1008.10 1008.57 1009.03 1009.48 1009.89 1010.26 1010.59 1010.90 1011.21 1011.54 1011.90 1012.28 1012.67 1013.04 1013.37 1013.62 1013.79 1013.88 1013.92 1013.94 1013.97 1014.05 1014.21 1014.43 1014.72 1015.03 1015.34 1015.59 1015.76 1015.83 1015.80 1015.67 1015.47 1015.24 1014.98 1014.73 1014.50 1014.28 1014.08 1013.89 1013.69 1013.51 1013.33
1007.56 1008.08 1008.58 1009.05 1009.46 1009.82 1010.14 1010.43 1010.74 1011.07 1011.43 1011.83 1012.23 1012.62 1012.96 1013.22 1013.40 1013.48 1013.50 1013.47 1013.46 1013.48 1013.57 1013.73 1013.95 1014.22 1014.49 1014.73 1014.91 1015.01 1015.03 1014.95 1014.82 1014.65 1014.45 1014.25 1014.06 1013.87 1013.68 1013.49 1013.30 1013.10 1012.91
1006.93 1007.52 1008.08 1008.58 1009.01 1009.37 1009.68 1009.98 1010.27 1010.60 1010.97 1011.38 1011.80 1012.21 1012.57 1012.84 1013.02 1013.10 1013.09 1013.04 1012.98 1012.94 1012.96 1013.05 1013.21 1013.41 1013.64 1013.85 1014.02 1014.13 1014.16 1014.13 1014.05 1013.92 1013.78 1013.63 1013.47 1013.32 1013.16 1012.98 1012.80 1012.60 1012.40
1006.16 1006.83 1007.45 1007.99 1008.44 1008.82 1009.14 1009.43 1009.74 1010.07 1010.46 1010.88 1011.33 1011.76 1012.14 1012.43 1012.61 1012.69 1012.68 1012.60 1012.50 1012.42 1012.38 1012.41 1012.50 1012.65 1012.82 1012.99 1013.13 1013.23 1013.27 1013.25 1013.19 1013.10 1013.00 1012.88 1012.77 1012.65 1012.51 1012.36 1012.19 1011.99 1011.79
1005.27 1005.98 1006.64 1007.22 1007.70 1008.10 1008.43 1008.74 1009.06 1009.42 1009.82 1010.28 1010.75 1011.21 1011.61 1011.92 1012.13 1012.21 1012.20 1012.11 1011.99 1011.88 1011.81 1011.80 1011.84 1011.94 1012.07 1012.20 1012.31 1012.38 1012.40 1012.38 1012.32 1012.24 1012.15 1012.06 1011.97 1011.87 1011.77 1011.64 1011.48 1011.30 1011.09
1004.30 1005.03 1005.70 1006.29 1006.78 1007.19 1007.54 1007.87 1008.21 1008.60 1009.04 1009.53 1010.03 1010.52 1010.95 1011.29 1011.52 1011.62 1011.62 1011.54 1011.43 1011.32 1011.23 1011.20 1011.23 1011.30 1011.40 1011.49 1011.57 1011.61 1011.60 1011.56 1011.48 1011.40 1011.30 1011.22 1011.13 1011.05 1010.96 1010.84 1010.70 1010.52 1010.33
1003.36 1004.07 1004.72 1005.29 1005.77 1006.17 1006.53 1006.87 1007.24 1007.66 1008.14 1008.66 1009.21 1009.73 1010.18 1010.55 1010.79 1010.92 1010.94 1010.89 1010.80 1010.71 1010.65 1010.63 1010.66 1010.73 1010.81 1010.89 1010.94 1010.95 1010.91 1010.83 1010.72 1010.61 1010.49 1010.39 1010.31 1010.22 1010.13 1010.03 1009.89 1009.73 1009.53
1002.63 1003.26 1003.85 1004.37 1004.81 1005.19 1005.54 1005.89 1006.28 1006.73 1007.24 1007.79 1008.35 1008.89 1009.37 1009.74 1010.01 1010.16 1010.21 1010.19 1010.14 1010.09 1010.07 1010.09 1010.15 1010.23 1010.32 1010.39 1010.42 1010.40 1010.33 1010.21 1010.07 1009.92 1009.78 1009.65 1009.55 1009.45 1009.36 1009.26 1009.13 1008.97 1008.78
1002.25 1002.77 1003.26 1003.70 1004.08 1004.42 1004.75 1005.10 1005.50 1005.96 1006.48 1007.04 1007.62 1008.16 1008.63 1009.01 1009.27 1009.44 1009.51 1009.53 1009.52 1009.52 1009.55 1009.62 1009.71 1009.83 1009.93 1010.01 1010.03 1009.98 1009.88 1009.72 1009.54 1009.35 1009.18 1009.02 1008.90 1008.80 1008.70 1008.60 1008.47 1008.32 1008.14
1002.31 1002.71 1003.08 1003.42 1003.72 1004.01 1004.30 1004.64 1005.03 1005.49 1006.01 1006.57 1007.12 1007.65 1008.10 1008.46 1008.72 1008.88 1008.96 1009.01 1009.04 1009.08 1009.16 1009.27 1009.41 1009.55 1009.67 1009.74 1009.74 1009.68 1009.54 1009.35 1009.14 1008.91 1008.71 1008.53 1008.39 1008.28 1008.19 1008.09 1007.98 1007.84 1007.68
1002.81 1003.09 1003.35 1003.59 1003.82 1004.05 1004.30 1004.61 1004.99 1005.43 1005.93 1006.46 1006.98 1007.47 1007.88 1008.20 1008.43 1008.58 1008.67 1008.72 1008.78 1008.85 1008.96 1009.10 1009.26 1009.41 1009.53 1009.59 1009.57 1009.48 1009.31 1009.09 1008.84 1008.59 1008.36 1008.17 1008.02 1007.91 1007.82 1007.74 1007.65 1007.54 1007.40
1003.68 1003.86 1004.03 1004.19 1004.34 1004.52 1004.74 1005.02 1005.37 1005.79 1006.26 1006.74 1007.22 1007.65 1008.01 1008.28 1008.48 1008.60 1008.67 1008.73 1008.79 1008.88 1009.00 1009.15 1009.30 1009.44 1009.53 1009.56 1009.51 1009.37 1009.17 1008.91 1008.63 1008.36 1008.11 1007.92 1007.77 1007.67 1007.59 1007.54 1007.47 1007.39 1007.28
1004.78 1004.88 1004.98 1005.08 1005.19 1005.33 1005.52 1005.78 1006.11 1006.50 1006.92 1007.36 1007.78 1008.15 1008.45 1008.67 1008.83 1008.92 1008.98 1009.02 1009.08 1009.16 1009.27 1009.40 1009.53 1009.63 1009.67 1009.65 1009.55 1009.36 1009.11 1008.82 1008.51 1008.21 1007.96 1007.75 1007.61 1007.51 1007.46 1007.42 1007.38 1007.33 1007.26
1005.93 1005.99 1006.04 1006.11 1006.19 1006.32 1006.50 1006.75 1007.05 1007.40 1007.79 1008.17 1008.53 1008.85 1009.09 1009.27 1009.39 1009.46 1009.50 1009.54 1009.59 1009.65 1009.74 1009.83 1009.91 1009.95 1009.94 1009.85 1009.68 1009.44 1009.14 1008.81 1008.47 1008.15 1007.87 1007.66 1007.51 1007.41 1007.36 1007.33 1007.31 1007.28 1007.24
1006.98 1007.02 1007.06 1007.12 1007.20 1007.33 1007.51 1007.74 1008.03 1008.35 1008.70 1009.04 1009.35 1009.61 1009.82 1009.96 1010.05 1010.11 1010.15 1010.18 1010.21 1010.26 1010.32 1010.37 1010.40 1010.38 1010.30 1010.15 1009.91 1009.62 1009.27 1008.90 1008.52 1008.18 1007.88 1007.65 1007.47 1007.36 1007.28 1007.24 1007.21 1007.18 1007.14
1007.85 1007.88 1007.93 1007.99 1008.08 1008.22 1008.41 1008.64 1008.91 1009.21 1009.52 1009.81 1010.08 1010.31 1010.48 1010.61 1010.69 1010.75 1010.79 1010.82 1010.86 1010.90 1010.93 1010.95 1010.93 1010.86 1010.73 1010.52 1010.24 1009.90 1009.51 1009.11 1008.71 1008.33 1008.00 1007.73 1007.51 1007.35 1007.22 1007.13 1007.05 1006.98 1006.92
1008.53 1008.56 1008.62 1008.69 1008.81 1008.95 1009.15 1009.37 1009.63 1009.90 1010.17 1010.43 1010.66 1010.85 1011.01 1011.12 1011.21 1011.28 1011.33 1011.38 1011.43 1011.47 1011.50 1011.50 1011.45 1011.35 1011.18 1010.94 1010.63 1010.27 1009.87 1009.45 1009.04 1008.64 1008.27 1007.94 1007.66 1007.41 1007.20 1007.02 1006.86 1006.71 1006.59
1009.07 1009.11 1009.17 1009.26 1009.39 1009.55 1009.74 1009.95 1010.19 1010.43 1010.66 1010.88 1011.07 1011.24 1011.37 1011.49 1011.58 1011.66 1011.74 1011.81 1011.87 1011.93 1011.96 1011.95 1011.90 1011.79 1011.62 1011.38 1011.08 1010.73 1010.34 1009.93 1009.51 1009.09 1008.69 1008.30 1007.93 1007.59 1007.26 1006.96 1006.68 1006.43 1006.22
1009.57 1009.61 1009.67 1009.77 1009.90 1010.06 1010.24 1010.44 1010.64 1010.85 1011.04 1011.21 1011.37 1011.50 1011.62 1011.73 1011.82 1011.91 1012.01 1012.09 1012.18 1012.24 1012.28 1012.29 1012.25 1012.16 1012.01 1011.80 1011.53 1011.22 1010.87 1010.49 1010.08 1009.67 1009.23 1008.79 1008.34 1007.89 1007.44 1007.00 1006.58 1006.20 1005.87
1010.09 1010.13 1010.19 1010.29 1010.42 1010.57 1010.73 1010.90 1011.07 1011.23 1011.37 1011.50 1011.62 1011.72 1011.81 1011.90 1011.99 1012.08 1012.17 1012.27 1012.35 1012.43 1012.48 1012.50 1012.47 1012.41 1012.30 1012.13 1011.93 1011.68 1011.39 1011.06 1010.69 1010.29 1009.84 1009.36 1008.84 1008.29 1007.73 1007.15 1006.60 1006.09 1005.64
1010.68 1010.70 1010.77 1010.86 1010.98 1011.11 1011.25 1011.39 1011.52 1011.63 1011.73 1011.81 1011.87 1011.94 1011.99 1012.05 1012.12 1012.20 1012.28 1012.36 1012.44 1012.51 1012.55 1012.58 1012.57 1012.53 1012.45 1012.35 1012.20 1012.02 1011.80 1011.54 1011.23 1010.86 1010.43 1009.93 1009.37 1008.75 1008.10 1007.42 1006.76 1006.13 1005.58
1011.30 1011.32 1011.38 1011.46 1011.57 1011.68 1011.80 1011.90 1011.99 1012.06 1012.11 1012.14 1012.16 1012.18 1012.20 1012.23 1012.26 1012.31 1012.36 1012.41 1012.46 1012.50 1012.53 1012.54 1012.53 1012.50 1012.46 1012.39 1012.30 1012.18 1012.03 1011.84 1011.59 1011.27 1010.87 1010.39 1009.82 1009.18 1008.48 1007.74 1007.01 1006.31 1005.69
1011.90 1011.92 1011.97 1012.05 1012.14 1012.23 1012.32 1012.39 1012.44 1012.47 1012.48 1012.47 1012.45 1012.43 1012.41 1012.40 1012.40 1012.41 1012.42 1012.43 1012.44 1012.44 1012.43 1012.41 1012.38 1012.33 1012.29 1012.24 1012.18 1012.11 1012.01 1011.87 1011.68 1011.42 1011.08 1010.63 1010.10 1009.47 1008.78 1008.04 1007.30 1006.58 1005.92
1012.39 1012.40 1012.45 1012.52 1012.60 1012.68 1012.74 1012.78 1012.80 1012.79 1012.77 1012.73 1012.68 1012.63 1012.58 1012.54 1012.51 1012.48 1012.45 1012.42 1012.38 1012.33 1012.27 1012.20 1012.13 1012.06 1011.99 1011.92 1011.86 1011.80 1011.73 1011.63 1011.49 1011.28 1010.99 1010.61 1010.14 1009.57 1008.93 1008.24 1007.53 1006.84 1006.20
1012.70 1012.72 1012.76 1012.82 1012.88 1012.94 1012.98 1012.99 1012.98 1012.95 1012.89 1012.83 1012.76 1012.69 1012.63 1012.57 1012.52 1012.47 1012.42 1012.36 1012.28 1012.19 1012.08 1011.96 1011.84 1011.71 1011.60 1011.50 1011.41 1011.33 1011.26 1011.17 1011.05 1010.89 1010.65 1010.34 1009.94 1009.46 1008.90 1008.30 1007.66 1007.03 1006.44
1012.81 1012.83 1012.86 1012.91 1012.95 1012.98 1012.99 1012.97 1012.93 1012.87 1012.80 1012.72 1012.64 1012.57 1012.51 1012.46 1012.41 1012.36 1012.30 1012.23 1012.14 1012.02 1011.88 1011.72 1011.55 1011.37 1011.20 1011.05 1010.91 1010.79 1010.69 1010.59 1010.47 1010.32 1010.13 1009.87 1009.55 1009.16 1008.71 1008.20 1007.67 1007.12 1006.60
Thickness
5789 5786 5783 5780 5778 5775 5772 5770 5767 5765 5762 5761 5759 5757 5756 5754 5752 5749 5747 5744 5741 5739 5737 5734 5732 5731 5729 5727 5726 5724 5721 5718 5714 5714 5714 5714 5713 5712 5711 5710 5708 5707 5706
5788 5785 5781 5778 5775 5772 5770 5769 5767 5764 5762 5760 5759 5756 5754 5753 5751 5748 5745 5743 5740 5737 5735 5732 5731 5729 5726 5724 5723 5721 5719 5717 5713 5710 5709 5709 5708 5707 5705 5704 5703 5702 5701
5786 5781 5776 5773 5770 5769 5767 5766 5765 5763 5761 5759 5757 5754 5752 5751 5749 5747 5744 5742 5739 5737 5734 5731 5729 5726 5723 5721 5719 5717 5716 5714 5711 5708 5705 5704 5702 5701 5699 5698 5697 5696 5695
5781 5776 5772 5768 5765 5764 5764 5763 5763 5761 5758 5757 5755 5753 5750 5748 5746 5744 5742 5740 5737 5735 5732 5730 5727 5724 5722 5719 5716 5714 5712 5709 5707 5703 5701 5699 5697 5695 5693 5691 5690 5689 5688
5773 5770 5768 5765 5762 5759 5758 5759 5759 5757 5755 5753 5751 5749 5747 5745 5743 5741 5738 5736 5733 5730 5728 5726 5725 5722 5720 5717 5714 5710 5707 5704 5702 5699 5696 5694 5691 5689 5687 5686 5683 5682 5681
5766 5765 5763 5760 5758 5754 5753 5753 5753 5752 5750 5749 5747 5744 5742 5741 5739 5737 5734 5732 5729 5726 5724 5722 5721 5718 5716 5713 5711 5708 5705 5701 5698 5694 5691 5688 5686 5684 5682 5680 5677 5675 5674
5757 5757 5755 5753 5751 5750 5749 5747 5746 5746 5745 5743 5742 5739 5737 5737 5736 5732 5730 5728 5725 5722 5720 5718 5715 5714 5711 5709 5706 5703 5700 5698 5696 5693 5688 5686 5683 5680 5677 5674 5672 5670 5669
5751 5749 5748 5746 5745 5744 5742 5741 5740 5740 5738 5737 5736 5734 5732 5732 5731 5728 5725 5723 5720 5718 5716 5714 5711 5709 5707 5704 5702 5698 5694 5692 5690 5687 5685 5683 5681 5677 5674 5671 5668 5664 5661
5744 5742 5742 5741 5738 5737 5735 5733 5733 5732 5730 5730 5729 5728 5727 5726 5724 5722 5719 5716 5714 5712 5711 5709 5706 5704 5702 5698 5695 5691 5688 5686 5684 5682 5679 5676 5674 5671 5668 5664 5660 5658 5655
5736 5736 5735 5734 5731 5729 5727 5726 5725 5724 5722 5721 5720 5721 5721 5720 5718 5714 5711 5710 5707 5705 5703 5702 5700 5698 5695 5691 5688 5685 5682 5680 5677 5675 5671 5668 5666 5664 5662 5659 5656 5653 5649
5729 5727 5726 5724 5723 5721 5720 5719 5717 5715 5714 5712 5711 5712 5711 5711 5709 5706 5703 5702 5700 5698 5696 5695 5693 5690 5687 5684 5682 5680 5678 5675 5671 5668 5664 5661 5659 5657 5654 5652 5649 5648 5645
5719 5717 5716 5715 5713 5713 5711 5710 5708 5706 5704 5702 5702 5702 5702 5701 5700 5698 5696 5693 5692 5691 5690 5689 5686 5682 5679 5676 5674 5672 5669 5665 5663 5659 5656 5654 5651 5649 5647 5644 5642 5640 5638
5707 5705 5704 5704 5702 5701 5700 5698 5696 5694 5693 5692 5691 5691 5692 5691 5691 5689 5687 5685 5683 5682 5682 5681 5677 5673 5669 5666 5664 5662 5659 5657 5654 5651 5649 5647 5644 5642 5639 5636 5634 5632 5630
5695 5694 5693 5692 5691 5690 5688 5687 5685 5684 5683 5682 5682 5681 5681 5680 5679 5679 5678 5676 5673 5671 5670 5669 5666 5662 5659 5657 5655 5652 5651 5649 5647 5644 5642 5639 5636 5633 5631 5629 5626 5623 5621
5683 5683 5681 5681 5680 5679 5677 5676 5676 5676 5674 5673 5674 5673 5671 5671 5671 5669 5667 5666 5664 5662 5659 5657 5655 5652 5650 5648 5646 5644 5642 5640 5637 5635 5633 5630 5627 5625 5623 5621 5618 5615 5613
5674 5672 5671 5670 5669 5668 5667 5666 5666 5665 5665 5665 5664 5664 5665 5663 5662 5660 5658 5657 5654 5651 5649 5647 5645 5644 5642 5641 5638 5635 5633 5631 5630 5627 5625 5622 5620 5618 5615 5612 5610 5608 5606
5663 5663 5662 5661 5660 5658 5657 5656 5655 5655 5654 5654 5653 5653 5653 5652 5651 5650 5648 5646 5643 5641 5640 5639 5638 5636 5634 5632 5630 5628 5625 5623 5620 5618 5616 5614 5612 5610 5607 5604 5602 5600 5597
5654 5654 5653 5652 5651 5648 5647 5646 5645 5644 5644 5644 5643 5642 5642 5641 5640 5639 5637 5634 5632 5631 5631 5631 5630 5628 5626 5623 5622 5620 5618 5615 5612 5610 5608 5606 5604 5602 5600 5597 5594 5592 5590
5644 5644 5643 5641 5640 5638 5637 5636 5635 5634 5634 5634 5634 5633 5631 5630 5629 5628 5626 5625 5625 5624 5623 5622 5621 5619 5617 5615 5614 5611 5609 5606 5604 5602 5600 5598 5595 5593 5591 5589 5586 5583 5581
5635 5636 5634 5632 5630 5628 5627 5626 5624 5624 5624 5624 5624 5623 5621 5620 5619 5619 5617 5617 5616 5615 5614 5613 5612 5610 5608 5607 5606 5603 5601 5598 5595 5593 5591 5589 5587 5585 5584 5581 5579 5577 5575
5627 5627 5626 5624 5622 5620 5618 5617 5616 5615 5615 5615 5614 5614 5612 5612 5612 5610 5608 5607 5607 5607 5606 5604 5603 5601 5600 5598 5596 5594 5592 5589 5587 5585 5583 5580 5578 5577 5575 5573 5571 5569 5566
5617 5617 5617 5615 5613 5611 5610 5609 5608 5607 5606 5606 5605 5603 5601 5602 5602 5601 5600 5598 5598 5598 5597 5595 5594 5593 5591 5589 5587 5586 5584 5581 5579 5577 5574 5572 5570 5568 5566 5564 5561 5559 5557
5609 5609 5608 5607 5605 5603 5602 5601 5600 5599 5598 5597 5596 5595 5594 5594 5594 5593 5592 5591 5590 5589 5589 5587 5585 5584 5582 5580 5578 5576 5575 5573 5571 5569 5566 5564 5561 5559 5557 5555 5553 5550 5548
5602 5602 5601 5600 5597 5596 5595 5594 5593 5592 5591 5590 5589 5588 5587 5586 5586 5586 5585 5583 5582 5581 5580 5579 5577 5576 5574 5571 5569 5567 5566 5564 5562 5560 5557 5555 5553 5551 5549 5547 5545 5543 5540
5595 5594 5593 5592 5590 5589 5588 5587 5586 5585 5584 5583 5582 5581 5580 5580 5579 5578 5577 5576 5575 5574 5573 5571 5570 5568 5567 5564 5561 5560 5558 5556 5554 5552 5549 5547 5545 5543 5541 5539 5537 5535 5532
5588 5587 5585 5584 5583 5581 5580 5579 5578 5577 5577 5576 5575 5574 5573 5572 5571 5570 5569 5568 5567 5566 5565 5564 5562 5561 5559 5557 5555 5552 5550 5548 5546 5544 5542 5540 5537 5535 5533 5531 5529 5526 5524